TimeCEST,TemperatureF,Dew PointF,Humidity,Sea Level PressureIn,VisibilityMPH,Wind Direction,Wind SpeedMPH,Gust SpeedMPH,PrecipitationIn,Events,Conditions,WindDirDegrees,DateUTC
12:00 AM,46.4,44.6,93,30.24,1.9,NE,8.1,-,N/A,Fog,Patches of Fog,50,2012-10-22 22:00:00
12:10 AM,46.4,44.6,93,30.24,0.9,NE,6.9,-,N/A,Fog,Patches of Fog,50,2012-10-22 22:10:00
12:19 AM,46.4,44.6,93,30.24,0.2,NE,8.1,-,N/A,Fog,Fog,50,2012-10-22 22:19:00
12:30 AM,46.4,44.6,93,30.24,0.1,ENE,8.1,-,N/A,Fog,Fog,60,2012-10-22 22:30:00
12:38 AM,46.4,44.6,93,30.24,0.4,ENE,9.2,-,N/A,Fog,Fog,60,2012-10-22 22:38:00
1:00 AM,48.2,46.4,93,30.24,0.5,ENE,8.1,-,N/A,Fog,Fog,70,2012-10-22 23:00:00
1:30 AM,48.2,46.4,93,30.24,0.5,ENE,9.2,-,N/A,Fog,Fog,70,2012-10-22 23:30:00
1:48 AM,46.4,44.6,93,30.24,0.7,NE,9.2,-,N/A,,Mostly Cloudy,50,2012-10-22 23:48:00
2:00 AM,47,46,93,30.26,1,NE,8.9,,,Fog,Light Fog,50,2012-10-23 00:00:00
2:00 AM,46.4,46.4,100,30.24,0.7,NE,9.2,-,N/A,,Mostly Cloudy,50,2012-10-23 00:00:00
2:30 AM,48.2,46.4,93,30.24,0.7,NE,5.8,-,N/A,,Overcast,40,2012-10-23 00:30:00
3:00 AM,46.4,44.6,93,30.24,0.6,NE,6.9,-,N/A,,Overcast,50,2012-10-23 01:00:00
3:30 AM,46.4,44.6,93,30.24,0.7,NE,9.2,-,N/A,,Overcast,40,2012-10-23 01:30:00
4:00 AM,48.2,46.4,93,30.24,0.9,ENE,10.4,-,N/A,,Overcast,60,2012-10-23 02:00:00
4:30 AM,48.2,46.4,93,30.24,1.1,ENE,12.7,-,N/A,,Overcast,60,2012-10-23 02:30:00
5:00 AM,48.2,46.4,93,30.24,0.9,ENE,11.5,-,N/A,,Overcast,60,2012-10-23 03:00:00
5:30 AM,48.2,46.4,93,30.24,1.2,ENE,11.5,-,N/A,,Overcast,60,2012-10-23 03:30:00
5:40 AM,48.2,46.4,93,30.24,1.4,ENE,11.5,-,N/A,,Overcast,60,2012-10-23 03:40:00
6:00 AM,48.2,46.4,93,30.24,1.2,ENE,11.5,-,N/A,,Overcast,60,2012-10-23 04:00:00
6:30 AM,46.4,44.6,93,30.24,1.1,ENE,11.5,-,N/A,,Overcast,60,2012-10-23 04:30:00
7:00 AM,46.4,44.6,93,30.24,1.2,ENE,11.5,-,N/A,,Overcast,70,2012-10-23 05:00:00
7:18 AM,48.2,46.4,93,30.24,1.4,ENE,10.4,-,N/A,,Overcast,60,2012-10-23 05:18:00
7:30 AM,48.2,46.4,93,30.24,1.6,ENE,11.5,-,N/A,,Overcast,60,2012-10-23 05:30:00
7:40 AM,46.4,44.6,93,30.24,1.6,ENE,11.5,-,N/A,,Overcast,60,2012-10-23 05:40:00
8:00 AM,47,45,92,30.28,2,ENE,11.2,,,,Mist,60,2012-10-23 06:00:00
8:00 AM,46.4,44.6,93,30.24,1.6,ENE,10.4,-,N/A,,Overcast,60,2012-10-23 06:00:00
8:30 AM,46.4,44.6,93,30.24,1.4,NE,11.5,-,N/A,,Overcast,50,2012-10-23 06:30:00
9:00 AM,46.4,44.6,93,30.24,1.9,ENE,12.7,-,N/A,,Overcast,60,2012-10-23 07:00:00
9:30 AM,48.2,44.6,87,30.27,2.5,ENE,11.5,-,N/A,,Overcast,70,2012-10-23 07:30:00
10:00 AM,48.2,44.6,87,30.27,2.5,ENE,16.1,-,N/A,,Overcast,60,2012-10-23 08:00:00
10:30 AM,48.2,44.6,87,30.27,2.5,ENE,10.4,-,N/A,,Overcast,60,2012-10-23 08:30:00
11:00 AM,50.0,46.4,87,30.27,2.8,ENE,9.2,-,N/A,,Overcast,70,2012-10-23 09:00:00
11:30 AM,50.0,46.4,87,30.27,2.8,ENE,8.1,-,N/A,,Overcast,70,2012-10-23 09:30:00
12:00 PM,50.0,46.4,87,30.27,2.8,ENE,9.2,-,N/A,,Overcast,70,2012-10-23 10:00:00
12:30 PM,51.8,46.4,82,30.27,2.8,ENE,9.2,-,N/A,,Overcast,70,2012-10-23 10:30:00
1:00 PM,51.8,46.4,82,30.27,2.8,ENE,12.7,-,N/A,,Overcast,70,2012-10-23 11:00:00
1:30 PM,51.8,46.4,82,30.24,3.1,ENE,10.4,-,N/A,,Overcast,60,2012-10-23 11:30:00
2:00 PM,51.8,46.4,82,30.24,3.1,ENE,12.7,-,N/A,,Overcast,60,2012-10-23 12:00:00
2:30 PM,51.8,46.4,82,30.24,3.7,ENE,10.4,-,N/A,,Overcast,70,2012-10-23 12:30:00
3:00 PM,51.8,46.4,82,30.24,4.3,NNE,8.1,-,N/A,,Overcast,30,2012-10-23 13:00:00
3:30 PM,51.8,46.4,82,30.24,5.0,NE,9.2,-,N/A,,Overcast,40,2012-10-23 13:30:00
4:00 PM,51.8,46.4,82,30.24,5.0,NNE,10.4,-,N/A,,Overcast,30,2012-10-23 14:00:00
4:30 PM,51.8,46.4,82,30.24,5.6,ENE,8.1,-,N/A,,Overcast,60,2012-10-23 14:30:00
5:00 PM,51.8,46.4,82,30.24,5.0,NE,8.1,-,N/A,,Overcast,50,2012-10-23 15:00:00
5:30 PM,51.8,46.4,82,30.24,5.0,NE,8.1,-,N/A,,Overcast,50,2012-10-23 15:30:00
6:00 PM,51.8,46.4,82,30.24,5.0,NNE,9.2,-,N/A,,Overcast,30,2012-10-23 16:00:00
6:30 PM,50.0,44.6,82,30.24,6.2,NNE,9.2,-,N/A,,Overcast,30,2012-10-23 16:30:00
7:00 PM,51.8,44.6,76,30.24,6.2,NNE,8.1,-,N/A,,Overcast,20,2012-10-23 17:00:00
7:30 PM,50.0,44.6,82,30.24,5.0,NNE,8.1,-,N/A,,Overcast,30,2012-10-23 17:30:00
8:00 PM,50,45,77,30.27,5,NNE,11.2,,,,Mist,30,2012-10-23 18:00:00
8:00 PM,50.0,44.6,82,30.24,5.0,NE,9.2,-,N/A,,Overcast,40,2012-10-23 18:00:00
8:30 PM,50.0,44.6,82,30.24,5.0,NE,11.5,-,N/A,,Overcast,50,2012-10-23 18:30:00
9:00 PM,50.0,44.6,82,30.24,5.0,NE,11.5,-,N/A,,Overcast,50,2012-10-23 19:00:00
9:30 PM,50.0,44.6,82,30.24,5.0,NE,10.4,-,N/A,,Overcast,50,2012-10-23 19:30:00
10:00 PM,50.0,44.6,82,30.24,5.0,NE,9.2,-,N/A,,Overcast,40,2012-10-23 20:00:00
10:30 PM,50.0,44.6,82,30.24,5.6,NE,8.1,-,N/A,,Mostly Cloudy,40,2012-10-23 20:30:00
11:00 PM,50.0,44.6,82,30.24,5.6,NNE,9.2,-,N/A,,Unknown,20,2012-10-23 21:00:00
11:30 PM,50.0,42.8,76,30.21,5.6,North,6.9,-,N/A,,Mostly Cloudy,360,2012-10-23 21:30:00